Location: New Canada
(47.1017°N, 68.5042°W)
Time: 17:06:14
(UTC+00:00)

RS-44 - Pass Details

Date: 22 April 2024
Orbit: 1174 x 1511 km, 82.5° (Epoch: 20 May)

Event Time Altitude Azimuth Distance (km) Brightness Sun altitude
Rises 01:25:21 0° 213° (SSW) 4,635 ? -17.4°
Reaches altitude 10° 01:28:30 10° 220° (SW) 3,643 ? -17.8°
Maximum altitude 01:36:45 43° 289° (WNW) 1,954 ? -18.8°
Drops below altitude 10° 01:44:39 10° 360° (N) 3,479 ? -19.8°
Sets 01:47:37 0° 7° (N) 4,410 ? -20.1°
